FW6330 Weather Reports


time (UTC)temp
F
wind
direction
speed
knots
gust
knots
rain 1hr
in
rain 24hr
in
rain mn
in
humidity
%
barometer
mb
20260510141604 45 201 0.0 0.0 0.00 0.00 0.00 78 1015.1
20260510140053 44 252 0.0 0.0 0.00 0.00 0.00 77 1015.0
20260510134556 43 191 0.0 0.0 0.00 0.00 0.00 75 1014.8
20260510133044 41 139 0.0 0.0 0.00 0.00 0.00 74 1014.8
20260510131539 41 110 0.0 0.0 0.00 0.00 0.00 73 1014.7
20260510130035 42 218 0.0 0.9 0.00 0.00 0.00 73 1014.7
20260510124530 42 13 0.0 0.9 0.00 0.00 0.00 73 1014.8
20260510123028 42 86 0.0 0.9 0.00 0.00 0.00 73 1014.7
20260510121521 42 120 0.0 0.9 0.00 0.00 0.00 73 1014.7
20260510120017 42 115 0.0 0.0 0.00 0.00 0.00 73 1014.8
20260510114514 42 205 0.0 0.9 0.00 0.00 0.00 71 1014.8
20260510113013 42 194 0.0 0.0 0.00 0.00 0.00 72 1014.8
20260510111505 42 165 0.0 0.0 0.00 0.00 0.00 72 1014.9
20260510110002 43 146 0.0 0.9 0.00 0.00 0.00 70 1014.8
20260510104601 43 190 0.0 0.0 0.00 0.00 0.00 70 1014.8
20260510103052 44 44 0.0 0.9 0.00 0.00 0.00 68 1014.8
20260510101547 44 76 0.0 0.0 0.00 0.00 0.00 69 1015.0
20260510100047 44 281 0.0 0.0 0.00 0.00 0.00 70 1015.0
20260510094546 43 282 0.0 0.0 0.00 0.00 0.00 70 1015.2
20260510093055 44 322 0.0 0.0 0.00 0.00 0.00 67 1015.1
20260510091537 44 38 0.0 0.0 0.00 0.00 0.00 69 1015.0
20260510090033 45 333 0.0 0.9 0.00 0.00 0.00 66 1015.2
20260510084531 45 143 0.0 0.9 0.00 0.00 0.00 66 1015.2
20260510083034 46 186 0.0 0.9 0.00 0.00 0.00 64 1015.2
20260510081535 46 108 0.0 0.9 0.00 0.00 0.00 63 1015.3
20260510080015 47 72 0.0 0.9 0.00 0.00 0.00 61 1015.6
20260510074510 46 245 0.0 0.9 0.00 0.00 0.00 63 1015.7
20260510073006 47 153 0.0 1.7 0.00 0.00 0.00 61 1015.8
20260510071502 47 65 0.0 0.0 0.00 0.00 0.00 61 1015.9
20260510070057 49 1 0.0 0.9 0.00 0.00 0.00 59 1015.8
20260510064602 50 134 0.0 0.9 0.00 0.00 0.00 55 1015.8
20260510063056 50 310 0.0 0.9 0.00 0.00 0.00 53 1015.6
20260510061555 50 197 0.0 1.7 0.00 0.00 0.00 52 1015.6
20260510060057 51 309 0.0 1.7 0.00 0.00 0.00 51 1015.7
20260510054553 51 186 0.0 1.7 0.00 0.00 0.00 52 1015.7
20260510053107 50 202 0.0 3.5 0.00 0.00 0.00 54 1015.5
20260510051603 49 131 0.0 0.9 0.00 0.00 0.00 66 1015.5
20260510050100 50 188 0.0 0.0 0.00 0.00 0.00 65 1015.4
20260510044603 52 137 0.0 1.7 0.00 0.00 0.00 56 1015.1
20260510043057 51 143 0.0 2.6 0.00 0.00 0.00 60 1014.9
20260510041550 51 251 0.0 0.0 0.00 0.00 0.00 66 1014.8
20260510040051 52 28 0.0 0.9 0.00 0.00 0.00 69 1014.5
20260510034549 53 277 0.0 0.9 0.00 0.00 0.00 68 1014.4
20260510033106 54 59 0.0 0.9 0.00 0.00 0.00 70 1014.0
20260510031548 55 69 0.0 0.9 0.00 0.00 0.00 78 1013.7
20260510030106 57 147 0.0 0.9 0.00 0.00 0.00 80 1013.4
20260510024547 58 84 0.0 0.0 0.00 0.00 0.00 78 1013.2
20260510023046 59 124 0.0 0.0 0.00 0.00 0.00 76 1012.9
20260510021542 61 314 0.0 0.9 0.00 0.00 0.00 72 1012.9
20260510020038 62 194 0.0 1.7 0.00 0.00 0.00 70 1012.8
20260510014538 63 333 0.0 2.6 0.00 0.00 0.00 68 1012.9
20260510013028 64 126 0.0 1.7 0.00 0.00 0.00 66 1012.9
20260510011524 65 96 0.0 4.3 0.00 0.00 0.00 65 1012.9
20260510010025 66 101 0.0 2.6 0.00 0.00 0.00 63 1012.9
20260510004515 67 105 0.0 2.6 0.00 0.00 0.00 62 1013.1
20260510003010 67 219 0.9 5.2 0.00 0.00 0.00 60 1013.0
20260510001506 69 176 0.0 2.6 0.00 0.00 0.00 59 1013.0
20260510000002 69 203 0.0 3.5 0.00 0.00 0.00 56 1013.4
20260509234600 70 164 0.0 1.7 0.00 0.00 0.00 55 1013.4
20260509233101 70 128 0.0 3.5 0.00 0.00 0.00 56 1013.6
20260509231552 70 282 0.0 3.5 0.00 0.00 0.00 52 1013.7
20260509230044 71 6 0.0 2.6 0.00 0.00 0.00 50 1014.0
20260509224539 70 230 0.0 3.5 0.00 0.00 0.00 47 1014.0
20260509223043 71 210 0.0 3.5 0.00 0.00 0.00 43 1014.3
20260509221535 71 53 0.0 4.3 0.00 0.00 0.00 36 1014.6
20260509220029 70 172 0.0 3.5 0.00 0.00 0.00 34 1014.6
20260509214522 71 148 0.0 1.7 0.00 0.00 0.00 34 1014.8
20260509213017 70 274 0.0 4.3 0.00 0.00 0.00 33 1014.9
20260509211513 69 188 0.9 3.5 0.00 0.00 0.00 32 1015.0
20260509210109 69 262 0.0 5.2 0.00 0.00 0.00 33 1014.9
20260509204503 69 32 1.7 7.8 0.00 0.00 0.00 31 1015.1
20260509203111 68 176 0.0 7.8 0.00 0.00 0.00 31 1015.2
20260509201602 68 134 2.6 7.8 0.00 0.00 0.00 33 1015.4
20260509200106 68 158 0.0 8.7 0.00 0.00 0.00 32 1015.6
20260509194548 68 249 0.0 2.6 0.00 0.00 0.00 31 1015.8
20260509193102 67 297 0.0 5.2 0.00 0.00 0.00 34 1015.8
20260509191541 67 195 2.6 5.2 0.00 0.00 0.00 31 1016.1
20260509190036 67 126 1.7 6.1 0.00 0.00 0.00 30 1016.2
20260509184539 66 9 0.9 4.3 0.00 0.00 0.00 30 1016.3
20260509183026 67 105 2.6 5.2 0.00 0.00 0.00 29 1016.5
20260509181521 66 32 0.9 6.1 0.00 0.00 0.00 32 1016.5
20260509180016 65 172 2.6 5.2 0.00 0.00 0.00 29 1016.6
20260509174515 65 168 1.7 6.1 0.00 0.00 0.00 29 1016.7
20260509173009 64 86 1.7 4.3 0.00 0.00 0.00 32 1016.5
20260509171505 63 131 0.9 6.1 0.00 0.00 0.00 33 1016.5
20260509164555 62 18 1.7 6.1 0.00 0.00 0.00 35 1016.6
20260509163058 62 189 1.7 6.1 0.00 0.00 0.00 36 1016.8
20260509161550 61 94 2.6 6.1 0.00 0.00 0.00 37 1016.8
20260509160043 60 295 1.7 8.7 0.00 0.00 0.00 39 1016.8
20260509154538 59 135 2.6 7.8 0.00 0.00 0.00 39 1016.9
20260509153036 58 79 1.7 7.0 0.00 0.00 0.00 41 1016.9
20260509151528 57 243 3.5 9.6 0.00 0.00 0.00 40 1016.9
20260509150024 56 181 1.7 8.7 0.00 0.00 0.00 43 1017.0
20260509144520 55 226 1.7 6.1 0.00 0.00 0.00 44 1017.0
20260509143019 54 77 0.9 3.5 0.00 0.00 0.00 48 1017.1